Time,TemperatureF,DewpointF,PressureIn,WindDirection,WindDirectionDegrees,WindSpeedMPH,WindSpeedGustMPH,Humidity,HourlyPrecipIn,Conditions,Clouds,dailyrainin,SoftwareType,DateUTC
2013-08-10 00:02:00,67.0,63.0,30.10,SE,126,0.0,0.0,88,0.00,,,0.00,,2013-08-10 05:02:00,
2013-08-10 00:11:00,67.0,63.0,30.10,SE,126,0.0,0.0,88,0.00,,,0.00,,2013-08-10 05:11:00,
2013-08-10 00:22:00,66.0,62.0,30.10,SE,126,0.0,0.0,88,0.00,,,0.00,,2013-08-10 05:22:00,
2013-08-10 00:32:00,66.0,62.0,30.10,SE,126,0.0,0.0,88,0.00,,,0.00,,2013-08-10 05:32:00,
2013-08-10 00:42:00,66.0,63.0,30.11,SE,126,0.0,0.0,89,0.00,,,0.00,,2013-08-10 05:42:00,
2013-08-10 00:52:00,66.0,63.0,30.11,SE,126,0.0,0.0,89,0.00,,,0.00,,2013-08-10 05:52:00,
2013-08-10 01:02:00,66.0,63.0,30.11,SE,126,0.0,0.0,89,0.00,,,0.00,,2013-08-10 06:02:00,
2013-08-10 01:11:00,66.0,63.0,30.11,SE,126,0.0,0.0,90,0.00,,,0.00,,2013-08-10 06:11:00,
2013-08-10 01:22:00,65.0,62.0,30.11,SE,126,0.0,0.0,90,0.00,,,0.00,,2013-08-10 06:22:00,
2013-08-10 01:32:00,65.0,62.0,30.11,SE,126,0.0,0.0,90,0.00,,,0.00,,2013-08-10 06:32:00,
2013-08-10 01:44:00,65.0,62.0,30.12,SE,126,0.0,0.0,90,0.00,,,0.00,,2013-08-10 06:44:00,
2013-08-10 01:53:00,65.0,62.0,30.12,SE,126,0.0,0.0,90,0.00,,,0.00,,2013-08-10 06:53:00,
2013-08-10 02:02:00,65.0,62.0,30.12,SE,126,0.0,0.0,90,0.00,,,0.00,,2013-08-10 07:02:00,
2013-08-10 02:12:00,65.0,62.0,30.12,SE,126,0.0,0.0,90,0.00,,,0.00,,2013-08-10 07:12:00,
2013-08-10 02:22:00,65.0,62.0,30.12,SE,126,0.0,0.0,90,0.00,,,0.00,,2013-08-10 07:22:00,
2013-08-10 02:33:00,65.0,62.0,30.12,SE,126,0.0,0.0,90,0.00,,,0.00,,2013-08-10 07:33:00,
2013-08-10 02:43:00,65.0,62.0,30.12,SE,126,0.0,0.0,90,0.00,,,0.00,,2013-08-10 07:43:00,
2013-08-10 02:52:00,65.0,62.0,30.12,SE,126,0.0,0.0,90,0.00,,,0.00,,2013-08-10 07:52:00,
2013-08-10 03:01:00,65.0,62.0,30.12,SE,126,0.0,0.0,90,0.00,,,0.00,,2013-08-10 08:01:00,
2013-08-10 03:12:00,64.0,61.0,30.12,SE,126,0.0,0.0,90,0.00,,,0.00,,2013-08-10 08:12:00,
2013-08-10 03:22:00,64.0,61.0,30.12,SE,126,0.0,0.0,90,0.00,,,0.00,,2013-08-10 08:22:00,
2013-08-10 03:32:00,64.0,61.0,30.13,SE,126,0.0,0.0,90,0.00,,,0.00,,2013-08-10 08:32:00,
2013-08-10 03:43:00,64.0,61.0,30.13,SE,126,0.0,0.0,90,0.00,,,0.00,,2013-08-10 08:43:00,
2013-08-10 03:53:00,63.0,60.0,30.13,SE,126,0.0,0.0,90,0.00,,,0.00,,2013-08-10 08:53:00,
2013-08-10 04:02:00,63.0,60.0,30.13,SE,126,0.0,0.0,90,0.00,,,0.00,,2013-08-10 09:02:00,
2013-08-10 04:12:00,63.0,60.0,30.13,SE,126,0.0,0.0,90,0.00,,,0.00,,2013-08-10 09:12:00,
2013-08-10 04:22:00,63.0,60.0,30.13,SE,126,0.0,0.0,90,0.00,,,0.00,,2013-08-10 09:22:00,
2013-08-10 04:32:00,63.0,60.0,30.13,SE,126,0.0,0.0,90,0.00,,,0.00,,2013-08-10 09:32:00,
2013-08-10 04:43:00,62.0,59.0,30.13,SE,126,0.0,0.0,91,0.00,,,0.00,,2013-08-10 09:43:00,
2013-08-10 04:52:00,62.0,59.0,30.13,SE,126,0.0,0.0,91,0.00,,,0.00,,2013-08-10 09:52:00,
2013-08-10 05:02:00,62.0,59.0,30.13,SE,126,0.0,0.0,90,0.00,,,0.00,,2013-08-10 10:02:00,
2013-08-10 05:11:00,62.0,59.0,30.13,SE,126,0.0,0.0,91,0.00,,,0.00,,2013-08-10 10:11:00,
2013-08-10 05:22:00,61.0,58.0,30.13,SE,126,0.0,0.0,90,0.00,,,0.00,,2013-08-10 10:22:00,
2013-08-10 05:33:00,61.0,58.0,30.13,SE,126,0.0,0.0,91,0.00,,,0.00,,2013-08-10 10:33:00,
2013-08-10 05:44:00,61.0,58.0,30.13,SE,126,0.0,0.0,91,0.00,,,0.00,,2013-08-10 10:44:00,
2013-08-10 05:52:00,60.0,57.0,30.13,SE,126,0.0,0.0,91,0.00,,,0.00,,2013-08-10 10:52:00,
2013-08-10 06:02:00,60.0,57.0,30.14,SE,126,0.0,0.0,91,0.00,,,0.00,,2013-08-10 11:02:00,
2013-08-10 06:11:00,60.0,57.0,30.14,SE,126,0.0,0.0,91,0.00,,,0.00,,2013-08-10 11:11:00,
2013-08-10 06:22:00,60.0,57.0,30.14,SE,126,0.0,0.0,91,0.00,,,0.00,,2013-08-10 11:22:00,
2013-08-10 06:33:00,60.0,57.0,30.14,SE,126,0.0,0.0,90,0.00,,,0.00,,2013-08-10 11:33:00,
2013-08-10 06:43:00,60.0,57.0,30.15,SE,126,0.0,0.0,90,0.00,,,0.00,,2013-08-10 11:43:00,
2013-08-10 06:53:00,60.0,57.0,30.15,SE,126,0.0,0.0,89,0.00,,,0.00,,2013-08-10 11:53:00,
2013-08-10 07:01:00,61.0,58.0,30.15,SE,126,0.0,0.0,89,0.00,,,0.00,,2013-08-10 12:01:00,
2013-08-10 07:11:00,61.0,58.0,30.15,SE,126,0.0,0.0,89,0.00,,,0.00,,2013-08-10 12:11:00,
2013-08-10 07:22:00,60.0,57.0,30.15,SE,126,0.0,0.0,89,0.00,,,0.00,,2013-08-10 12:22:00,
2013-08-10 07:32:00,60.0,57.0,30.15,SE,126,0.0,0.0,89,0.00,,,0.00,,2013-08-10 12:32:00,
2013-08-10 07:42:00,61.0,57.0,30.16,SE,126,0.0,0.0,88,0.00,,,0.00,,2013-08-10 12:42:00,
2013-08-10 07:52:00,62.0,58.0,30.16,SE,126,0.0,0.0,87,0.00,,,0.00,,2013-08-10 12:52:00,
2013-08-10 08:01:00,63.0,58.0,30.16,SE,126,1.0,2.0,85,0.00,,,0.00,,2013-08-10 13:01:00,
2013-08-10 08:11:00,64.0,58.0,30.16,SE,126,1.0,1.0,82,0.00,,,0.00,,2013-08-10 13:11:00,
2013-08-10 08:21:00,64.0,58.0,30.16,SE,126,0.0,2.0,81,0.00,,,0.00,,2013-08-10 13:21:00,
2013-08-10 08:32:00,65.0,59.0,30.16,SE,126,1.0,1.0,81,0.00,,,0.00,,2013-08-10 13:32:00,
2013-08-10 08:43:00,66.0,60.0,30.16,SE,124,1.0,2.0,80,0.00,,,0.00,,2013-08-10 13:43:00,
2013-08-10 08:52:00,66.0,59.0,30.17,ESE,119,0.0,4.0,79,0.00,,,0.00,,2013-08-10 13:52:00,
2013-08-10 09:02:00,67.0,60.0,30.17,SE,127,2.0,5.0,77,0.00,,,0.00,,2013-08-10 14:02:00,
2013-08-10 09:12:00,68.0,60.0,30.17,East,100,2.0,6.0,76,0.00,,,0.00,,2013-08-10 14:12:00,
2013-08-10 09:22:00,68.0,59.0,30.18,East,95,2.0,5.0,74,0.00,,,0.00,,2013-08-10 14:22:00,
2013-08-10 09:32:00,69.0,60.0,30.19,SE,138,3.0,5.0,74,0.00,,,0.00,,2013-08-10 14:32:00,
2013-08-10 09:42:00,70.0,60.0,30.19,SE,134,3.0,8.0,71,0.00,,,0.00,,2013-08-10 14:42:00,
2013-08-10 09:53:00,71.0,61.0,30.19,ESE,105,4.0,7.0,70,0.00,,,0.00,,2013-08-10 14:53:00,
2013-08-10 10:02:00,71.0,60.0,30.19,SE,128,4.0,10.0,69,0.00,,,0.00,,2013-08-10 15:02:00,
2013-08-10 10:11:00,71.0,60.0,30.19,SE,136,4.0,8.0,69,0.00,,,0.00,,2013-08-10 15:11:00,
2013-08-10 10:22:00,72.0,60.0,30.19,SE,145,4.0,9.0,67,0.00,,,0.00,,2013-08-10 15:22:00,
2013-08-10 10:33:00,72.0,60.0,30.18,SE,140,4.0,9.0,66,0.00,,,0.00,,2013-08-10 15:33:00,
2013-08-10 10:43:00,73.0,60.0,30.19,SE,129,5.0,9.0,64,0.00,,,0.00,,2013-08-10 15:43:00,
2013-08-10 10:52:00,74.0,61.0,30.18,SE,126,2.0,8.0,64,0.00,,,0.00,,2013-08-10 15:52:00,
2013-08-10 11:01:00,75.0,60.0,30.18,SE,130,3.0,9.0,60,0.00,,,0.00,,2013-08-10 16:01:00,
2013-08-10 11:11:00,76.0,61.0,30.18,ESE,121,2.0,6.0,60,0.00,,,0.00,,2013-08-10 16:11:00,
2013-08-10 11:22:00,77.0,59.0,30.19,ESE,112,4.0,10.0,54,0.00,,,0.00,,2013-08-10 16:22:00,
2013-08-10 11:32:00,77.0,59.0,30.19,SSE,158,5.0,9.0,53,0.00,,,0.00,,2013-08-10 16:32:00,
2013-08-10 11:43:00,78.0,59.0,30.19,SE,131,5.0,8.0,52,0.00,,,0.00,,2013-08-10 16:43:00,
2013-08-10 11:53:00,78.0,59.0,30.19,SE,138,3.0,9.0,52,0.00,,,0.00,,2013-08-10 16:53:00,
2013-08-10 12:02:00,78.0,58.0,30.19,ESE,114,5.0,13.0,50,0.00,,,0.00,,2013-08-10 17:02:00,
2013-08-10 12:12:00,78.0,58.0,30.19,ESE,107,4.0,9.0,51,0.00,,,0.00,,2013-08-10 17:12:00,
2013-08-10 12:22:00,79.0,60.0,30.19,SE,146,3.0,7.0,52,0.00,,,0.00,,2013-08-10 17:22:00,
2013-08-10 12:33:00,81.0,60.0,30.18,SSE,149,4.0,9.0,49,0.00,,,0.00,,2013-08-10 17:33:00,
2013-08-10 12:43:00,81.0,58.0,30.18,SSE,147,6.0,8.0,46,0.00,,,0.00,,2013-08-10 17:43:00,
2013-08-10 12:52:00,82.0,59.0,30.18,SSE,166,3.0,6.0,45,0.00,,,0.00,,2013-08-10 17:52:00,
2013-08-10 13:01:00,82.0,59.0,30.17,SE,139,3.0,6.0,46,0.00,,,0.00,,2013-08-10 18:01:00,
2013-08-10 13:11:00,82.0,59.0,30.16,SE,131,1.0,8.0,45,0.00,,,0.00,,2013-08-10 18:11:00,
2013-08-10 13:23:00,82.0,57.0,30.17,SE,142,4.0,7.0,43,0.00,,,0.00,,2013-08-10 18:23:00,
2013-08-10 13:32:00,82.0,58.0,30.16,SE,129,4.0,10.0,44,0.00,,,0.00,,2013-08-10 18:32:00,
2013-08-10 13:44:00,82.0,59.0,30.16,SE,138,2.0,5.0,46,0.00,,,0.00,,2013-08-10 18:44:00,
2013-08-10 13:52:00,83.0,58.0,30.16,SE,139,3.0,11.0,43,0.00,,,0.00,,2013-08-10 18:52:00,
2013-08-10 14:02:00,83.0,57.0,30.16,SE,136,3.0,8.0,41,0.00,,,0.00,,2013-08-10 19:02:00,
2013-08-10 14:11:00,83.0,58.0,30.15,SSE,152,4.0,8.0,42,0.00,,,0.00,,2013-08-10 19:11:00,
2013-08-10 14:22:00,83.0,58.0,30.14,SE,135,3.0,9.0,43,0.00,,,0.00,,2013-08-10 19:22:00,
2013-08-10 14:33:00,83.0,58.0,30.15,SE,129,0.0,10.0,42,0.00,,,0.00,,2013-08-10 19:33:00,
2013-08-10 14:44:00,84.0,57.0,30.14,SE,145,4.0,7.0,40,0.00,,,0.00,,2013-08-10 19:44:00,
2013-08-10 14:53:00,85.0,57.0,30.14,SE,136,5.0,9.0,39,0.00,,,0.00,,2013-08-10 19:53:00,
2013-08-10 15:02:00,85.0,59.0,30.14,SSE,160,3.0,7.0,41,0.00,,,0.00,,2013-08-10 20:02:00,
2013-08-10 15:12:00,84.0,58.0,30.14,SE,136,0.0,9.0,41,0.00,,,0.00,,2013-08-10 20:12:00,
2013-08-10 15:22:00,85.0,59.0,30.13,SSW,209,1.0,5.0,41,0.00,,,0.00,,2013-08-10 20:22:00,
2013-08-10 15:33:00,85.0,57.0,30.13,SE,140,3.0,9.0,39,0.00,,,0.00,,2013-08-10 20:33:00,
2013-08-10 15:43:00,85.0,57.0,30.13,ESE,121,0.0,5.0,38,0.00,,,0.00,,2013-08-10 20:43:00,
2013-08-10 15:53:00,85.0,57.0,30.13,SE,142,3.0,7.0,39,0.00,,,0.00,,2013-08-10 20:53:00,
2013-08-10 16:02:00,85.0,59.0,30.12,WSW,240,1.0,3.0,41,0.00,,,0.00,,2013-08-10 21:02:00,
2013-08-10 16:12:00,84.0,57.0,30.12,SSE,160,1.0,8.0,40,0.00,,,0.00,,2013-08-10 21:12:00,
2013-08-10 16:22:00,84.0,57.0,30.12,SSE,148,2.0,5.0,40,0.00,,,0.00,,2013-08-10 21:22:00,
2013-08-10 16:32:00,84.0,59.0,30.11,SW,222,2.0,5.0,43,0.00,,,0.00,,2013-08-10 21:32:00,
2013-08-10 16:42:00,83.0,57.0,30.11,SE,145,3.0,5.0,41,0.00,,,0.00,,2013-08-10 21:42:00,
2013-08-10 16:52:00,83.0,58.0,30.11,SE,146,2.0,5.0,43,0.00,,,0.00,,2013-08-10 21:52:00,
2013-08-10 17:01:00,83.0,59.0,30.11,SSE,157,2.0,8.0,44,0.00,,,0.00,,2013-08-10 22:01:00,
2013-08-10 17:11:00,82.0,57.0,30.11,West,264,2.0,5.0,43,0.00,,,0.00,,2013-08-10 22:11:00,
2013-08-10 17:21:00,82.0,59.0,30.11,NW,311,2.0,3.0,45,0.00,,,0.00,,2013-08-10 22:21:00,
2013-08-10 17:32:00,82.0,60.0,30.11,NW,311,0.0,5.0,47,0.00,,,0.00,,2013-08-10 22:32:00,
2013-08-10 17:43:00,82.0,60.0,30.11,NW,311,0.0,5.0,47,0.00,,,0.00,,2013-08-10 22:43:00,
2013-08-10 17:52:00,82.0,60.0,30.11,NW,311,0.0,5.0,47,0.00,,,0.00,,2013-08-10 22:52:00,
2013-08-10 18:01:00,82.0,60.0,30.11,NW,311,0.0,5.0,47,0.00,,,0.00,,2013-08-10 23:01:00,
2013-08-10 18:12:00,82.0,60.0,30.11,NW,311,0.0,5.0,47,0.00,,,0.00,,2013-08-10 23:12:00,
2013-08-10 18:53:00,81.0,61.0,30.08,SSW,197,2.0,3.0,50,0.00,,,0.00,,2013-08-10 23:53:00,
2013-08-10 19:02:00,81.0,60.0,30.08,SSW,197,0.0,1.0,49,0.00,,,0.00,,2013-08-11 00:02:00,
2013-08-10 19:11:00,81.0,61.0,30.08,SSW,197,0.0,2.0,50,0.00,,,0.00,,2013-08-11 00:11:00,
2013-08-10 19:22:00,81.0,61.0,30.07,SSW,197,0.0,4.0,50,0.00,,,0.00,,2013-08-11 00:22:00,
2013-08-10 19:32:00,80.0,63.0,30.07,SSW,196,0.0,0.0,57,0.00,,,0.00,,2013-08-11 00:32:00,
2013-08-10 19:42:00,80.0,63.0,30.07,SSW,196,0.0,0.0,57,0.00,,,0.00,,2013-08-11 00:42:00,
2013-08-10 19:52:00,79.0,64.0,30.07,SSW,197,0.0,0.0,61,0.00,,,0.00,,2013-08-11 00:52:00,
2013-08-10 20:01:00,78.0,64.0,30.08,SSW,196,0.0,0.0,62,0.00,,,0.00,,2013-08-11 01:01:00,
2013-08-10 20:11:00,78.0,65.0,30.07,SSW,197,0.0,0.0,64,0.00,,,0.00,,2013-08-11 01:11:00,
2013-08-10 20:22:00,78.0,65.0,30.07,SSW,196,0.0,0.0,64,0.00,,,0.00,,2013-08-11 01:22:00,
2013-08-10 20:32:00,77.0,64.0,30.07,SSW,196,0.0,0.0,64,0.00,,,0.00,,2013-08-11 01:32:00,
2013-08-10 20:43:00,76.0,64.0,30.08,SSW,197,0.0,0.0,66,0.00,,,0.00,,2013-08-11 01:43:00,
2013-08-10 20:53:00,75.0,63.0,30.08,SSW,197,0.0,0.0,67,0.00,,,0.00,,2013-08-11 01:53:00,
2013-08-10 21:02:00,74.0,63.0,30.08,SSW,197,0.0,0.0,69,0.00,,,0.00,,2013-08-11 02:02:00,
2013-08-10 21:11:00,72.0,62.0,30.09,SSW,197,0.0,0.0,71,0.00,,,0.00,,2013-08-11 02:11:00,
2013-08-10 21:22:00,71.0,61.0,30.09,SSW,196,0.0,0.0,71,0.00,,,0.00,,2013-08-11 02:22:00,
2013-08-10 21:32:00,71.0,61.0,30.09,SSW,196,0.0,0.0,71,0.00,,,0.00,,2013-08-11 02:32:00,
2013-08-10 21:43:00,71.0,61.0,30.10,SSW,197,0.0,0.0,71,0.00,,,0.00,,2013-08-11 02:43:00,
2013-08-10 21:56:00,70.0,60.0,30.10,SSW,197,0.0,0.0,70,0.00,,,0.00,,2013-08-11 02:56:00,
2013-08-10 22:05:00,70.0,60.0,30.10,SSW,197,0.0,0.0,71,0.00,,,0.00,,2013-08-11 03:05:00,
2013-08-10 22:17:00,70.0,61.0,30.10,SSW,197,0.0,0.0,72,0.00,,,0.00,,2013-08-11 03:17:00,
2013-08-10 22:27:00,70.0,61.0,30.10,SSW,197,0.0,0.0,73,0.00,,,0.00,,2013-08-11 03:27:00,
2013-08-10 22:35:00,69.0,61.0,30.10,SSW,196,0.0,0.0,75,0.00,,,0.00,,2013-08-11 03:35:00,
2013-08-10 22:44:00,69.0,61.0,30.10,SSW,196,0.0,0.0,77,0.00,,,0.00,,2013-08-11 03:44:00,
2013-08-10 22:54:00,69.0,62.0,30.10,SSW,196,0.0,0.0,78,0.00,,,0.00,,2013-08-11 03:54:00,
2013-08-10 23:01:00,68.0,61.0,30.10,SSW,197,0.0,0.0,79,0.00,,,0.00,,2013-08-11 04:01:00,
2013-08-10 23:12:00,68.0,62.0,30.10,SSW,197,0.0,0.0,80,0.00,,,0.00,,2013-08-11 04:12:00,
2013-08-10 23:22:00,67.0,61.0,30.09,SSW,197,0.0,0.0,81,0.00,,,0.00,,2013-08-11 04:22:00,
2013-08-10 23:32:00,67.0,61.0,30.10,SSW,197,0.0,0.0,81,0.00,,,0.00,,2013-08-11 04:32:00,
2013-08-10 23:43:00,66.0,60.0,30.10,SSW,197,0.0,0.0,81,0.00,,,0.00,,2013-08-11 04:43:00,
2013-08-10 23:53:00,66.0,60.0,30.10,SSW,197,0.0,0.0,81,0.00,,,0.00,,2013-08-11 04:53:00,